Ellensburg, WA
on Sunday, January 13, 2013

Sunday
Previous Day Next Day
Daily Summary
 ActualAverage (KYKM)Record (KYKM)
Temperature
Mean Temperature °F 30°F  
Max Temperature 23°F 38°F 61°F (1994)
Min Temperature 7°F 23°F -18°F (1950)
Degree Days
Heating Degree Days 50 35  
Month to date heating degree days 466  
Since 1 July heating degree days 3129  
Cooling Degree Days 0 0  
Month to date cooling degree days 0  
Year to date cooling degree days 0  
Moisture
Dew Point 7°F   
Average Humidity 75    
Maximum Humidity 81    
Minimum Humidity 65    
Precipitation
Precipitation 0.00 in 0.04 in 0.63 in (1950)
Month to date precipitation 0.55  
Year to date precipitation 0.55  
Snow
Snow 0.00 in 0.20 in 6.70 in (1950)
Month to date snowfall 2.9  
Year to date snowfall 2.9  
Since 1 July snowfall 15.9  
Snow Depth in   
Wind
Wind Speed 2 mph   
Max Wind Speed 6 mph   
Max Gust Speed mph   
Visibility 10 miles   
Events     

Key: T is trace of precipitation, MM is missing value
Source: NWS Daily Summary
Time(PST)TemperatureDew PointHumidity Pressure Visibility Wind DirectionWind SpeedGust SpeedPrecipitationEvents Conditions
12:53 AM 10.0°F 3.9°F 76% 30.42 in 9.0 miles East 3.5 mph - N/A   Partly Cloudy
1:53 AM 8.1°F 1.9°F 76% 30.43 in 9.0 miles Calm Calm - N/A   Clear
2:53 AM 9.0°F 3.9°F 80% 30.43 in 10.0 miles Calm Calm - N/A   Clear
3:53 AM 7.0°F 1.9°F 80% 30.43 in 7.0 miles Calm Calm - N/A   Clear
4:53 AM 8.1°F 1.9°F 76% 30.42 in 10.0 miles East 5.8 mph - N/A   Clear
5:53 AM 8.1°F 1.9°F 76% 30.45 in 10.0 miles WNW 4.6 mph - N/A   Clear
6:53 AM 8.1°F 1.9°F 76% 30.47 in 10.0 miles East 3.5 mph - N/A   Clear
7:53 AM 8.1°F 1.9°F 76% 30.49 in 10.0 miles Calm Calm - N/A   Clear
8:53 AM 10.9°F 3.9°F 73% 30.51 in 10.0 miles Calm Calm - N/A   Clear
9:53 AM 12.9°F 8.1°F 81% 30.51 in 10.0 miles Calm Calm - N/A   Clear
10:53 AM 16.0°F 9.0°F 74% 30.51 in 10.0 miles Calm Calm - N/A   Clear
11:53 AM 19.0°F 10.9°F 71% 30.49 in 10.0 miles Calm Calm - N/A   Clear
12:53 PM 19.9°F 10.9°F 68% 30.48 in 10.0 miles Calm Calm - N/A   Clear
1:53 PM 23.0°F 12.9°F 65% 30.48 in 10.0 miles Calm Calm - N/A   Clear
2:53 PM 21.0°F 12.0°F 68% 30.48 in 10.0 miles Calm Calm - N/A   Clear
3:53 PM 19.9°F 12.0°F 71% 30.48 in 10.0 miles Calm Calm - N/A   Partly Cloudy
4:53 PM 19.0°F 10.9°F 71% 30.48 in 10.0 miles Calm Calm - N/A   Clear
5:53 PM 16.0°F 9.0°F 74% 30.48 in 8.0 miles ENE 4.6 mph - N/A   Clear
6:53 PM 15.1°F 9.0°F 77% 30.47 in 8.0 miles ENE 4.6 mph - N/A   Scattered Clouds
7:53 PM 14.0°F 8.1°F 77% 30.48 in 9.0 miles Calm Calm - N/A   Mostly Cloudy
8:53 PM 12.9°F 7.0°F 77% 30.48 in 10.0 miles North 5.8 mph - N/A   Overcast
9:53 PM 15.1°F 9.0°F 77% 30.47 in 10.0 miles Calm Calm - N/A   Mostly Cloudy
10:53 PM 16.0°F 9.0°F 74% 30.47 in 10.0 miles Calm Calm - N/A   Overcast
11:53 PM 18.0°F 12.0°F 78% 30.46 in 10.0 miles Calm Calm - N/A   Overcast
Moon Phase
Jan. 13 Jan. 18 Jan. 26 Feb. 03 Feb. 10
Sunrise:07:44 AM (PST) Moon Rise:08:34 AM (PST)1/13
Sunset:04:37 PM (PST) Moon Set:07:35 PM (PST)1/13

Copyright © 2014 The Weather Underground, Inc.